Location: Newark
(51.0000°N, 11.4100°E)
Time: 08:12:14
(UTC+00:00)

Transit 4A - Visible Passes

Search period start: 18 November 2019 00:00
Search period end: 28 November 2019 00:00
Orbit: 868 x 976 km, 66.8° (Epoch: 17 November)

Date Brightness Start Highest point End Pass type
(mag) Time Alt. Az. Time Alt. Az. Time Alt. Az.
18 Nov 10.4 01:42:00 13° NNE 01:42:00 13° NNE 01:43:02 10° NE visible
18 Nov 9.6 03:25:31 19° N 03:27:39 23° NNE 03:32:17 10° ENE visible
18 Nov 8.2 05:09:17 10° NW 05:15:13 61° NE 05:21:00 10° SE visible
19 Nov 10.3 01:51:18 14° NNE 01:51:18 14° NNE 01:52:50 10° NE visible
19 Nov 9.4 03:34:49 20° N 03:37:23 27° NNE 03:42:19 10° E visible
19 Nov 7.9 05:18:38 10° NW 05:24:37 81° NE 05:30:28 10° SE visible
20 Nov 10.2 02:00:38 16° NNE 02:00:38 16° NNE 02:02:46 10° NE visible
20 Nov 9.2 03:44:10 22° NNW 03:47:02 32° NNE 03:52:16 10° E visible
20 Nov 7.8 05:28:01 10° NW 05:33:58 76° WSW 05:39:46 10° SSE visible
21 Nov 10.1 02:10:01 18° NNE 02:10:01 18° NNE 02:12:47 10° ENE visible
21 Nov 8.8 03:53:33 24° NNW 03:56:38 40° NE 04:02:07 10° ESE visible
21 Nov 8.0 05:37:27 10° NW 05:43:13 55° WSW 05:48:52 10° SSE visible
22 Nov 9.9 02:19:27 20° NNE 02:19:27 20° NNE 02:22:50 10° ENE visible
22 Nov 8.4 04:02:59 26° NNW 04:06:09 51° NE 04:11:50 10° ESE visible
22 Nov 8.4 05:46:58 10° NW 05:52:24 39° WSW 05:57:44 10° S visible
23 Nov 9.7 02:28:56 24° NE 02:28:56 24° NE 02:32:54 10° ENE visible
23 Nov 8.0 04:12:28 28° NNW 04:15:37 68° NE 04:21:25 10° SE visible
23 Nov 8.8 05:56:38 10° NW 06:01:32 28° WSW 06:06:21 10° SSW visible
24 Nov 9.4 02:38:29 28° NE 02:38:29 28° NE 02:42:54 10° E visible
24 Nov 7.7 04:22:02 31° NW 04:25:00 89° ENE 04:30:50 10° SE visible
24 Nov 9.2 06:06:31 10° WNW 06:10:34 20° WSW 06:14:34 10° SSW visible
25 Nov 9.2 02:48:06 34° NE 02:48:06 34° NE 02:52:49 10° E visible
25 Nov 7.7 04:31:39 33° NW 04:34:18 68° WSW 04:40:04 10° SSE visible
26 Nov 8.8 02:57:48 42° ENE 02:57:48 42° ENE 03:02:38 10° ESE visible
26 Nov 8.0 04:41:21 33° WNW 04:43:32 48° WSW 04:49:05 10° S visible
27 Nov 8.5 03:07:35 50° E 03:07:35 50° E 03:12:18 10° SE visible
27 Nov 8.4 04:51:09 30° W 04:52:42 34° WSW 04:57:52 10° S visible
